Location: Newark
(48.6767°N, 1.3256°E)
Time: 11:57:59
(UTC+00:00)

ISS - Pass Details

Date: 28 November 2019
Orbit: 411 x 421 km, 51.6° (Epoch: 11 December)

Event Time Altitude Azimuth Distance (km) Brightness Sun altitude
Rises 18:59:18 0° 277° (W) 2,361 1.3 -28.4°
Reaches altitude 10° 19:01:27 10° 283° (WNW) 1,500 -0.1 -28.7°
Enters shadow 19:02:22 17° 289° (WNW) 1,147 -0.8 -28.9°
